TimeCDT,TemperatureF,Dew PointF,Humidity,Sea Level PressureIn,VisibilityMPH,Wind Direction,Wind SpeedMPH,Gust SpeedMPH,PrecipitationIn,Events,Conditions,WindDirDegrees,DateUTC
12:53 AM,55.9,37.9,51,30.02,10.0,NNE,9.2,-,N/A,,Clear,20,2012-09-20 05:53:00
1:53 AM,57.9,37.0,46,30.02,10.0,NE,5.8,-,N/A,,Clear,40,2012-09-20 06:53:00
2:53 AM,52.0,41.0,66,30.03,10.0,Calm,Calm,-,N/A,,Clear,0,2012-09-20 07:53:00
3:53 AM,48.0,39.9,74,30.05,10.0,WSW,3.5,-,N/A,,Clear,250,2012-09-20 08:53:00
4:53 AM,48.0,39.0,71,30.05,10.0,NW,4.6,-,N/A,,Clear,320,2012-09-20 09:53:00
5:53 AM,46.0,39.0,76,30.08,10.0,Calm,Calm,-,N/A,,Clear,0,2012-09-20 10:53:00
6:53 AM,46.0,37.9,73,30.09,10.0,Calm,Calm,-,N/A,,Clear,0,2012-09-20 11:53:00
7:53 AM,43.0,37.9,82,30.09,10.0,WSW,3.5,-,N/A,,Clear,250,2012-09-20 12:53:00
8:53 AM,50.0,39.9,68,30.08,10.0,Calm,Calm,-,N/A,,Clear,0,2012-09-20 13:53:00
9:53 AM,57.9,41.0,53,30.07,10.0,Calm,Calm,-,N/A,,Clear,0,2012-09-20 14:53:00
10:53 AM,66.9,39.0,36,30.06,10.0,Calm,Calm,-,N/A,,Clear,0,2012-09-20 15:53:00
11:53 AM,73.0,33.1,23,30.06,10.0,SSE,5.8,-,N/A,,Clear,150,2012-09-20 16:53:00
12:53 PM,75.9,33.1,21,30.04,10.0,SSE,4.6,-,N/A,,Clear,160,2012-09-20 17:53:00
1:53 PM,80.1,33.1,18,30.01,10.0,Variable,6.9,-,N/A,,Clear,0,2012-09-20 18:53:00
2:53 PM,81.0,34.0,18,29.99,10.0,SW,8.1,-,N/A,,Clear,220,2012-09-20 19:53:00
3:53 PM,81.0,35.1,19,29.98,10.0,South,8.1,-,N/A,,Clear,190,2012-09-20 20:53:00
4:53 PM,81.0,35.1,19,29.96,10.0,Variable,5.8,-,N/A,,Clear,0,2012-09-20 21:53:00
5:53 PM,81.0,37.0,21,29.95,10.0,SSW,8.1,-,N/A,,Clear,200,2012-09-20 22:53:00
6:53 PM,77.0,37.9,24,29.94,10.0,SW,6.9,-,N/A,,Clear,220,2012-09-20 23:53:00
7:53 PM,71.1,39.9,32,29.95,10.0,Calm,Calm,-,N/A,,Clear,0,2012-09-21 00:53:00
9:53 PM,60.1,44.1,55,29.95,10.0,WSW,5.8,-,N/A,,Clear,250,2012-09-21 02:53:00
10:53 PM,69.1,37.9,32,29.93,10.0,SSW,11.5,-,N/A,,Clear,210,2012-09-21 03:53:00
11:53 PM,66.0,39.0,37,29.92,10.0,WSW,9.2,-,N/A,,Clear,240,2012-09-21 04:53:00